Location: Piotrkow Trybunalski
(51.4000°N, 19.6830°E)
Time: 10:54:02
(UTC+01:00)

Tiros 1 - All Passes

Search period start: 31 January 2023 00:00
Search period end: 10 February 2023 00:00
Orbit: 628 x 662 km, 48.4° (Epoch: 30 January)

Date Brightness Start Highest point End Pass type
(mag) Time Alt. Az. Time Alt. Az. Time Alt. Az.
31 Jan - 00:26:15 10° SSE 00:28:01 12° SE 00:29:46 10° ESE night (unlit)
31 Jan - 02:04:57 10° SW 02:09:12 36° SSE 02:13:28 10° E visible
31 Jan - 03:46:21 10° WSW 03:50:57 60° S 03:55:35 10° E visible
31 Jan - 05:28:18 10° W 05:32:50 48° SSW 05:37:23 10° ESE visible
31 Jan - 07:10:49 10° W 07:14:19 21° SW 07:17:51 10° SSE daylight
01 Feb - 00:49:23 10° SSW 00:52:53 22° SE 00:56:25 10° E night (unlit)
01 Feb - 02:29:54 10° WSW 02:34:23 49° SSE 02:38:55 10° E visible
01 Feb - 04:11:40 10° W 04:16:16 60° S 04:20:55 10° ESE visible
01 Feb - 05:53:46 10° W 05:58:01 34° SSW 06:02:18 10° SE visible
01 Feb - 07:37:39 10° WSW 07:39:12 11° SW 07:40:46 10° SSW daylight
01 Feb - 23:35:36 10° SSE 23:36:47 11° SE 23:37:58 10° ESE night (unlit)
02 Feb - 01:13:45 10° SW 01:17:56 34° SSE 01:22:08 10° E night (unlit)
02 Feb - 02:55:05 10° WSW 02:59:40 59° S 03:04:17 10° E visible
02 Feb - 04:37:01 10° W 04:41:33 50° SSW 04:46:06 10° ESE visible
02 Feb - 06:19:27 10° W 06:23:04 22° SW 06:26:42 10° SSE visible
02 Feb - 23:58:17 10° SSW 00:01:39 20° SE 00:05:01 10° E night (unlit)
03 Feb - 01:38:39 10° WSW 01:43:06 48° SSE 01:47:35 10° E night (unlit)
03 Feb - 03:20:23 10° W 03:24:58 60° S 03:29:36 10° ESE visible
03 Feb - 05:02:27 10° W 05:06:44 36° SSW 05:11:04 10° SE visible
03 Feb - 06:45:59 10° WSW 06:47:58 13° SW 06:49:57 10° SSW daylight
04 Feb - 00:22:34 10° SW 00:26:39 32° SSE 00:30:47 10° E night (unlit)
04 Feb - 02:03:48 10° WSW 02:08:22 58° S 02:12:58 10° E night (unlit)
04 Feb - 03:45:44 10° W 03:50:15 51° SSW 03:54:49 10° ESE visible
04 Feb - 05:28:05 10° W 05:31:49 24° SSW 05:35:33 10° SSE visible
04 Feb - 23:07:12 10° S 23:10:23 19° SE 23:13:36 10° E night (unlit)
05 Feb - 00:47:24 10° SW 00:51:49 46° SSE 00:56:16 10° E night (unlit)
05 Feb - 02:29:05 10° W 02:33:40 61° S 02:38:18 10° ESE visible
05 Feb - 04:11:09 10° W 04:15:28 38° SSW 04:19:49 10° SE visible
05 Feb - 05:54:25 10° WSW 05:56:44 14° SW 05:59:02 10° S visible
05 Feb - 23:31:22 10° SSW 23:35:23 30° SSE 23:39:27 10° E night (unlit)
06 Feb - 01:12:31 10° WSW 01:17:04 57° S 01:21:39 10° E night (unlit)
06 Feb - 02:54:26 10° W 02:58:57 53° SSW 03:03:31 10° ESE visible
06 Feb - 04:36:44 10° W 04:40:33 25° SSW 04:44:22 10° SSE visible
06 Feb - 22:16:08 10° S 22:19:09 17° SE 22:22:10 10° ESE night (unlit)
06 Feb - 23:56:09 10° SW 00:00:32 44° SSE 00:04:57 10° E night (unlit)
07 Feb - 01:37:48 10° W 01:42:22 61° S 01:46:58 10° ESE night (unlit)
07 Feb - 03:19:50 10° W 03:24:10 40° SSW 03:28:33 10° SE visible
07 Feb - 05:02:54 10° WSW 05:05:29 15° SW 05:08:03 10° S visible
07 Feb - 22:40:10 10° SSW 22:44:07 28° SSE 22:48:05 10° E night (unlit)
08 Feb - 00:21:14 10° WSW 00:25:46 56° S 00:30:20 10° E night (unlit)
08 Feb - 02:03:07 10° W 02:07:39 54° S 02:12:13 10° ESE night (unlit)
08 Feb - 03:45:23 10° W 03:49:16 26° SSW 03:53:10 10° SSE visible
08 Feb - 21:25:06 10° S 21:27:54 16° SE 21:30:42 10° ESE night (unlit)
08 Feb - 23:04:53 10° SW 23:09:13 42° SSE 23:13:36 10° E night (unlit)
09 Feb - 00:46:30 10° W 00:51:04 61° S 00:55:38 10° E night (unlit)
09 Feb - 02:28:31 10° W 02:32:53 41° SSW 02:37:16 10° SE night (unlit)
09 Feb - 04:11:25 10° WSW 04:14:13 16° SW 04:17:02 10° S visible
09 Feb - 21:49:00 10° SSW 21:52:51 27° SSE 21:56:43 10° E night (unlit)
09 Feb - 23:29:57 10° WSW 23:34:27 55° S 23:39:00 10° E night (unlit)
